TimeCET,TemperatureF,Dew PointF,Humidity,Sea Level PressureIn,VisibilityMPH,Wind Direction,Wind SpeedMPH,Gust SpeedMPH,PrecipitationIn,Events,Conditions,WindDirDegrees,DateUTC
12:00 AM,53.6,44.6,72,29.74,6.2,WNW,4.6,-,N/A,,Mostly Cloudy,300,2013-02-22 23:00:00
12:30 AM,53.6,46.4,77,29.74,6.2,Variable,2.3,-,N/A,,Scattered Clouds,0,2013-02-22 23:30:00
1:00 AM,54,45,63,29.76,12,WSW,6.9,,,,Partly Cloudy,240,2013-02-23 00:00:00
1:00 AM,53.6,44.6,72,29.74,6.2,WSW,6.9,-,N/A,,Partly Cloudy,240,2013-02-23 00:00:00
1:30 AM,51.8,42.8,71,29.74,6.2,WNW,4.6,-,N/A,,Partly Cloudy,300,2013-02-23 00:30:00
2:00 AM,53.6,41.0,62,29.74,6.2,WNW,9.2,-,N/A,,Partly Cloudy,290,2013-02-23 01:00:00
2:30 AM,51.8,41.0,67,29.74,6.2,WNW,3.5,-,N/A,,Scattered Clouds,290,2013-02-23 01:30:00
3:00 AM,50.0,41.0,71,29.74,6.2,Variable,2.3,-,N/A,,Scattered Clouds,0,2013-02-23 02:00:00
3:30 AM,50.0,42.8,76,29.74,6.2,NW,1.2,-,N/A,,Scattered Clouds,320,2013-02-23 02:30:00
4:00 AM,50.0,42.8,76,29.74,6.2,Variable,1.2,-,N/A,,Scattered Clouds,0,2013-02-23 03:00:00
4:30 AM,48.2,42.8,82,29.71,6.2,Calm,Calm,-,N/A,,Partly Cloudy,0,2013-02-23 03:30:00
5:00 AM,48.2,42.8,82,29.68,6.2,South,3.5,-,N/A,,Scattered Clouds,190,2013-02-23 04:00:00
5:30 AM,50.0,42.8,76,29.68,6.2,Variable,3.5,-,N/A,Rain,Light Rain,0,2013-02-23 04:30:00
5:49 AM,50.0,44.6,82,29.68,6.2,West,4.6,-,N/A,Rain,Rain,280,2013-02-23 04:49:00
6:00 AM,48.2,44.6,87,29.68,6.2,West,3.5,-,N/A,Rain,Rain,270,2013-02-23 05:00:00
6:20 AM,48.2,44.6,87,29.68,6.2,NNW,3.5,-,N/A,,Mostly Cloudy,330,2013-02-23 05:20:00
6:30 AM,48.2,44.6,87,29.65,6.2,Calm,Calm,-,N/A,,Mostly Cloudy,0,2013-02-23 05:30:00
7:00 AM,49,46,87,29.68,12,,2.3,,,Rain,Light Rain,,2013-02-23 06:00:00
7:00 AM,48.2,46.4,93,29.65,6.2,Variable,2.3,-,N/A,Rain,Light Rain,0,2013-02-23 06:00:00
7:30 AM,48.2,46.4,93,29.65,6.2,NNW,3.5,-,N/A,,Mostly Cloudy,330,2013-02-23 06:30:00
8:00 AM,50.0,46.4,87,29.65,6.2,NNW,8.1,-,N/A,,Mostly Cloudy,330,2013-02-23 07:00:00
8:30 AM,50.0,46.4,87,29.68,6.2,Variable,2.3,-,N/A,,Mostly Cloudy,0,2013-02-23 07:30:00
9:00 AM,53.6,46.4,77,29.68,6.2,Variable,1.2,-,N/A,,Mostly Cloudy,0,2013-02-23 08:00:00
9:30 AM,53.6,44.6,72,29.71,6.2,NW,10.4,21.9,N/A,,Mostly Cloudy,310,2013-02-23 08:30:00
10:00 AM,55.4,46.4,72,29.71,6.2,NW,15.0,27.6,N/A,,Mostly Cloudy,310,2013-02-23 09:00:00
10:30 AM,53.6,46.4,77,29.74,6.2,NW,16.1,29.9,N/A,,Mostly Cloudy,310,2013-02-23 09:30:00
11:00 AM,55.4,46.4,72,29.74,6.2,NW,18.4,-,N/A,,Mostly Cloudy,310,2013-02-23 10:00:00
11:30 AM,55.4,46.4,72,29.77,6.2,WNW,18.4,35.7,N/A,,Mostly Cloudy,300,2013-02-23 10:30:00
12:00 PM,57.2,44.6,63,29.77,6.2,WNW,16.1,29.9,N/A,,Mostly Cloudy,300,2013-02-23 11:00:00
12:30 PM,57.2,44.6,63,29.80,6.2,WNW,18.4,-,N/A,,Mostly Cloudy,290,2013-02-23 11:30:00
1:00 PM,59,40,39,29.80,19,WNW,21.9,,,,Partly Cloudy,300,2013-02-23 12:00:00
1:00 PM,57.2,44.6,63,29.77,6.2,WNW,21.9,34.5,N/A,,Scattered Clouds,300,2013-02-23 12:00:00
1:30 PM,59.0,42.8,55,29.80,6.2,WNW,24.2,38.0,N/A,,Scattered Clouds,300,2013-02-23 12:30:00
2:00 PM,59.0,44.6,59,29.80,6.2,WNW,23.0,36.8,N/A,,Scattered Clouds,300,2013-02-23 13:00:00
2:30 PM,57.2,42.8,59,29.80,6.2,WNW,20.7,35.7,N/A,,Scattered Clouds,300,2013-02-23 13:30:00
3:00 PM,57.2,41.0,55,29.83,6.2,WNW,18.4,32.2,N/A,,Scattered Clouds,300,2013-02-23 14:00:00
3:30 PM,59.0,42.8,55,29.83,6.2,WNW,16.1,28.8,N/A,,Scattered Clouds,300,2013-02-23 14:30:00
4:00 PM,59.0,41.0,51,29.83,6.2,WNW,16.1,28.8,N/A,,Scattered Clouds,300,2013-02-23 15:00:00
4:30 PM,60.8,39.2,45,29.86,6.2,WNW,16.1,27.6,N/A,,Scattered Clouds,300,2013-02-23 15:30:00
5:00 PM,60.8,37.4,42,29.86,6.2,WNW,16.1,-,N/A,,Scattered Clouds,300,2013-02-23 16:00:00
5:30 PM,60.8,37.4,42,29.86,6.2,NW,13.8,-,N/A,,Scattered Clouds,310,2013-02-23 16:30:00
6:00 PM,59.0,37.4,45,29.89,6.2,WNW,17.3,31.1,N/A,,Scattered Clouds,300,2013-02-23 17:00:00
6:30 PM,57.2,35.6,44,29.89,6.2,NW,13.8,25.3,N/A,,Scattered Clouds,310,2013-02-23 17:30:00
7:00 PM,58,33,27,29.93,19,WNW,6.9,,,,Scattered Clouds,300,2013-02-23 18:00:00
7:00 PM,55.4,35.6,47,29.92,6.2,WNW,6.9,-,N/A,,Partly Cloudy,300,2013-02-23 18:00:00
7:30 PM,53.6,37.4,54,29.92,6.2,WNW,6.9,-,N/A,,Partly Cloudy,290,2013-02-23 18:30:00
8:00 PM,53.6,37.4,54,29.95,6.2,West,5.8,-,N/A,,Partly Cloudy,280,2013-02-23 19:00:00
8:30 PM,51.8,37.4,58,29.95,6.2,WNW,8.1,-,N/A,,Partly Cloudy,300,2013-02-23 19:30:00
9:00 PM,51.8,35.6,54,29.98,6.2,WNW,10.4,-,N/A,,Partly Cloudy,290,2013-02-23 20:00:00
9:30 PM,51.8,35.6,54,29.98,6.2,WNW,11.5,-,N/A,,Partly Cloudy,290,2013-02-23 20:30:00
10:00 PM,51.8,35.6,54,30.01,6.2,WNW,11.5,-,N/A,,Partly Cloudy,290,2013-02-23 21:00:00
10:30 PM,50.0,35.6,58,30.01,6.2,WNW,10.4,-,N/A,,Partly Cloudy,290,2013-02-23 21:30:00
11:00 PM,51.8,33.8,50,30.04,6.2,West,11.5,-,N/A,,Partly Cloudy,270,2013-02-23 22:00:00
11:30 PM,50.0,33.8,54,30.04,-9999.0,WNW,11.5,-,N/A,,Clear,290,2013-02-23 22:30:00